Hourly Weather Ryabinovka

Today, 18 April, Sunday

Time Temperature Precipitation Wind Pressure Humidity
00:00 +5°C° 0 mm 2 mps 745 mmHg 92%
01:00 +5°C° 0 mm 2 mps 745 mmHg 92%
02:00 +4°C° 0 mm 2 mps 745 mmHg 92%
03:00 +5°C° 0 mm 1 mps 745 mmHg 92%
04:00 +5°C° 0 mm 1 mps 745 mmHg 92%
05:00 +5°C° 0 mm 1 mps 745 mmHg 93%
06:00 +5°C° 0.1 mm 1 mps 745 mmHg 89%
07:00 +5°C° 0.1 mm 2 mps 745 mmHg 85%
08:00 +6°C° 0.1 mm 2 mps 745 mmHg 82%
09:00 +6°C° 0.3 mm 2 mps 745 mmHg 82%
10:00 +5°C° 0.3 mm 3 mps 745 mmHg 82%
11:00 +7°C° 0.3 mm 3 mps 745 mmHg 82%
12:00 +7°C° 0.2 mm 3 mps 745 mmHg 77%
13:00 +8°C° 0.2 mm 2 mps 745 mmHg 73%
14:00 +9°C° 0.2 mm 2 mps 745 mmHg 68%
15:00 +9°C° 0 mm 2 mps 745 mmHg 67%
16:00 +9°C° 0 mm 2 mps 745 mmHg 67%
17:00 +9°C° 0 mm 2 mps 745 mmHg 66%
18:00 +8°C° 0.1 mm 2 mps 745 mmHg 71%
19:00 +7°C° 0.1 mm 3 mps 745 mmHg 77%
20:00 +5°C° 0.1 mm 3 mps 745 mmHg 82%
21:00 +5°C° 0 mm 3 mps 745 mmHg 84%
22:00 +5°C° 0 mm 3 mps 745 mmHg 86%
23:00 +5°C° 0 mm 2 mps 745 mmHg 87%

Tomorrow, 19 April, Monday

Time Temperature Precipitation Wind Pressure Humidity
00:00 +4°C° 0.1 mm 3 mps 745 mmHg 88%
01:00 +4°C° 0.1 mm 3 mps 745 mmHg 89%
02:00 +4°C° 0.1 mm 3 mps 745 mmHg 90%
03:00 +4°C° 0.4 mm 3 mps 745 mmHg 91%
04:00 +4°C° 0.4 mm 4 mps 745 mmHg 92%
05:00 +4°C° 0.4 mm 4 mps 745 mmHg 92%
06:00 +5°C° 0.1 mm 4 mps 745 mmHg 91%
07:00 +5°C° 0.1 mm 4 mps 745 mmHg 90%
08:00 +6°C° 0.1 mm 4 mps 745 mmHg 88%
09:00 +6°C° 0.2 mm 4 mps 745 mmHg 86%
10:00 +7°C° 0.2 mm 3 mps 745 mmHg 84%
11:00 +8°C° 0.2 mm 3 mps 745 mmHg 82%
12:00 +7°C° 0.2 mm 4 mps 745 mmHg 83%
13:00 +6°C° 0.2 mm 4 mps 745 mmHg 85%
14:00 +6°C° 0.2 mm 4 mps 745 mmHg 86%
15:00 +5°C° 0.1 mm 5 mps 745 mmHg 88%
16:00 +5°C° 0.1 mm 5 mps 745 mmHg 91%
17:00 +3°C° 0.1 mm 5 mps 745 mmHg 94%
18:00 +3°C° 0.1 mm 5 mps 745 mmHg 94%
19:00 +3°C° 0.1 mm 5 mps 745 mmHg 94%
20:00 +2°C° 0.1 mm 5 mps 745 mmHg 94%
21:00 +2°C° 0 mm 5 mps 745 mmHg 94%
22:00 +4°C° 0 mm 4 mps 745 mmHg 94%
23:00 +4°C° 0 mm 4 mps 745 mmHg 94%

Day after tomorrow, 20 April, Tuesday

Time Temperature Precipitation Wind Pressure Humidity
00:00 +4°C° 0 mm 4 mps 744 mmHg 94%
01:00 +4°C° 0 mm 4 mps 744 mmHg 95%
02:00 +4°C° 0 mm 4 mps 744 mmHg 95%
03:00 +4°C° 0 mm 4 mps 744 mmHg 95%
04:00 +4°C° 0 mm 4 mps 744 mmHg 95%
05:00 +3°C° 0 mm 5 mps 743 mmHg 95%
06:00 +5°C° 0 mm 5 mps 743 mmHg 93%
07:00 +5°C° 0 mm 5 mps 743 mmHg 92%
08:00 +5°C° 0 mm 6 mps 743 mmHg 90%
09:00 +5°C° 0.1 mm 6 mps 743 mmHg 89%
10:00 +6°C° 0.1 mm 7 mps 743 mmHg 88%
11:00 +6°C° 0.1 mm 7 mps 742 mmHg 86%
12:00 +6°C° 0.1 mm 7 mps 741 mmHg 86%
13:00 +6°C° 0.1 mm 7 mps 741 mmHg 86%
14:00 +6°C° 0.1 mm 8 mps 740 mmHg 86%
15:00 +5°C° 1.6 mm 8 mps 739 mmHg 88%
16:00 +5°C° 1.6 mm 9 mps 738 mmHg 90%
17:00 +3°C° 1.6 mm 9 mps 737 mmHg 91%
18:00 +3°C° 3.2 mm 10 mps 736 mmHg 92%
19:00 +2°C° 3.2 mm 10 mps 735 mmHg 92%
20:00 +2°C° 3.2 mm 10 mps 734 mmHg 92%
21:00 +3°C° 0.9 mm 10 mps 732 mmHg 92%
22:00 +3°C° 0.9 mm 10 mps 731 mmHg 92%
23:00 +5°C° 0.9 mm 10 mps 730 mmHg 91%

21 April, Wednesday

Time Temperature Precipitation Wind Pressure Humidity
00:00 +6°C° 0.5 mm 10 mps 729 mmHg 92%
01:00 +6°C° 0.5 mm 9 mps 729 mmHg 92%
02:00 +7°C° 0.5 mm 9 mps 729 mmHg 92%
03:00 +5°C° 0.3 mm 8 mps 729 mmHg 93%
04:00 +4°C° 0.3 mm 7 mps 729 mmHg 93%
05:00 +2°C° 0.3 mm 6 mps 730 mmHg 94%
06:00 +2°C° 0.3 mm 6 mps 731 mmHg 94%
07:00 +2°C° 0.3 mm 7 mps 731 mmHg 95%
08:00 0°C° 0.3 mm 7 mps 732 mmHg 96%
09:00 +2°C° 0 mm 7 mps 733 mmHg 92%
10:00 +1°C° 0 mm 8 mps 734 mmHg 89%
11:00 +2°C° 0 mm 8 mps 735 mmHg 86%
12:00 +2°C° 0 mm 8 mps 736 mmHg 85%
13:00 +2°C° 0 mm 8 mps 737 mmHg 85%
14:00 +2°C° 0 mm 9 mps 737 mmHg 85%
15:00 +4°C° 0 mm 8 mps 738 mmHg 84%
16:00 +4°C° 0 mm 8 mps 739 mmHg 82%
17:00 +4°C° 0 mm 7 mps 740 mmHg 81%
18:00 +4°C° 0 mm 7 mps 740 mmHg 83%
19:00 +4°C° 0 mm 6 mps 741 mmHg 84%
20:00 +5°C° 0 mm 5 mps 742 mmHg 85%
21:00 +3°C° 0 mm 5 mps 742 mmHg 85%
22:00 +4°C° 0 mm 4 mps 743 mmHg 85%
23:00 +4°C° 0 mm 4 mps 743 mmHg 85%

22 April, Thursday

Time Temperature Precipitation Wind Pressure Humidity
00:00 +3°C° 0 mm 4 mps 744 mmHg 86%
01:00 +3°C° 0 mm 4 mps 744 mmHg 87%
02:00 +3°C° 0 mm 3 mps 744 mmHg 88%
03:00 +3°C° 0 mm 3 mps 745 mmHg 88%
04:00 +3°C° 0 mm 3 mps 745 mmHg 89%
05:00 +3°C° 0 mm 3 mps 745 mmHg 89%
06:00 +5°C° 0 mm 4 mps 746 mmHg 84%
07:00 +6°C° 0 mm 4 mps 746 mmHg 79%
08:00 +7°C° 0 mm 5 mps 747 mmHg 74%
09:00 +8°C° 0.1 mm 5 mps 747 mmHg 71%
10:00 +9°C° 0.1 mm 6 mps 747 mmHg 68%
11:00 +11°C° 0.1 mm 6 mps 747 mmHg 65%
12:00 +11°C° 0.4 mm 6 mps 747 mmHg 63%
13:00 +11°C° 0.4 mm 6 mps 747 mmHg 62%
14:00 +13°C° 0.4 mm 5 mps 747 mmHg 60%
15:00 +13°C° 0.3 mm 5 mps 747 mmHg 63%
16:00 +12°C° 0.3 mm 5 mps 748 mmHg 66%
17:00 +12°C° 0.3 mm 4 mps 748 mmHg 69%
18:00 +11°C° 0.2 mm 4 mps 748 mmHg 75%
19:00 +9°C° 0.2 mm 3 mps 748 mmHg 81%
20:00 +8°C° 0.2 mm 3 mps 749 mmHg 87%
21:00 +8°C° 0 mm 3 mps 749 mmHg 88%
22:00 +7°C° 0 mm 2 mps 749 mmHg 89%
23:00 +7°C° 0 mm 2 mps 749 mmHg 90%

23 April, Friday

Time Temperature Precipitation Wind Pressure Humidity
00:00 +7°C° 0 mm 2 mps 749 mmHg 91%
01:00 +6°C° 0 mm 2 mps 749 mmHg 92%
02:00 +6°C° 0 mm 2 mps 749 mmHg 92%
03:00 +6°C° 0 mm 2 mps 750 mmHg 93%
04:00 +6°C° 0 mm 2 mps 750 mmHg 93%
05:00 +6°C° 0 mm 2 mps 750 mmHg 94%
06:00 +8°C° 0 mm 2 mps 750 mmHg 88%
07:00 +9°C° 0 mm 2 mps 750 mmHg 83%
08:00 +12°C° 0 mm 2 mps 750 mmHg 78%
09:00 +13°C° 0 mm 2 mps 750 mmHg 72%
10:00 +14°C° 0 mm 2 mps 751 mmHg 67%
11:00 +16°C° 0 mm 2 mps 751 mmHg 61%
12:00 +16°C° 0.3 mm 2 mps 750 mmHg 58%
13:00 +17°C° 0.3 mm 2 mps 750 mmHg 54%
14:00 +17°C° 0.3 mm 2 mps 750 mmHg 51%
15:00 +17°C° 0.2 mm 2 mps 750 mmHg 55%
16:00 +16°C° 0.2 mm 2 mps 750 mmHg 59%
17:00 +16°C° 0.2 mm 2 mps 751 mmHg 63%
18:00 +14°C° 0.2 mm 2 mps 751 mmHg 68%
19:00 +13°C° 0.2 mm 2 mps 751 mmHg 74%
20:00 +12°C° 0.2 mm 2 mps 751 mmHg 79%
21:00 +10°C° 0.3 mm 2 mps 751 mmHg 81%
22:00 +10°C° 0.3 mm 2 mps 751 mmHg 84%
23:00 +9°C° 0.3 mm 2 mps 751 mmHg 86%
Show more